, TX

(GMT )
Ingleside

Weather History for KTFP - August, 2013

Change the Weather History Date:

Tuesday, August 20, 2013

  Actual Average Record
Temperature  
Mean Temperature 80 °F -  
Max Temperature 86 °F - - ()
Min Temperature 75 °F - - ()
Cooling Degree Days 16    
Growing Degree Days 30 (Base 50)    
Moisture  
Dew Point 74 °F    
Average Humidity 81    
Maximum Humidity 95    
Minimum Humidity 62    
Precipitation  
Precipitation 0.64 in - - ()
Sea Level Pressure  
Sea Level Pressure 29.97 in    
Wind  
Wind Speed 5 mph (ESE)    
Max Wind Speed 14 mph    
Max Gust Speed 21 mph    
Visibility 10 miles    
Events Rain , Thunderstorm    
Averages and records for this station are not official NWS values.
T = Trace of Precipitation, MM = Missing Value Source: NWS Daily Summary

Daily Weather History Graph

Daily Weather History Graph

Search for Another Location

Airport or City:

Trip Planner

Search our weather history database for the weather conditions in past years. The results will help you decide how hot, cold, wet, or windy it might be!

Date:

Astronomy

Aug. 20, 2013 Rise Set
Actual Time 7:01 AM CDT 8:02 PM CDT
Civil Twilight 6:37 AM CDT 8:26 PM CDT
Nautical Twilight 6:08 AM CDT 8:55 PM CDT
Astronomical Twilight 5:39 AM CDT 9:24 PM CDT
Moon 7:40 PM CDT (8/20) 6:30 AM CDT (8/20)
Length of Visible Light 13h 48m
Length of Day
13h 00m
Full, 100% of the Moon is Illuminated
Aug 20
Full
Aug 20
Full
Aug 28
Last Quarter
Sep 5
New
Sep 12
First Quarter

Hourly Weather History & Observations

Time (CDT) Temp. Heat Index Dew Point Humidity Pressure Visibility Wind Dir Wind Speed Gust Speed Precip Events Conditions
12:15 AM 81.5 °F 87.2 °F 73.9 °F 78% 29.94 in 10.0 mi ESE 5.8 mph - N/A   Scattered Clouds
12:35 AM 81.7 °F 87.8 °F 74.5 °F 79% 29.94 in 10.0 mi Calm Calm - N/A   Scattered Clouds
12:55 AM 81.9 °F 88.0 °F 74.3 °F 78% 29.94 in 10.0 mi SE 5.8 mph - N/A   Clear
1:15 AM 81.9 °F 88.0 °F 74.5 °F 78% 29.94 in 10.0 mi SE 5.8 mph - N/A   Scattered Clouds
1:35 AM 81.7 °F 87.8 °F 74.5 °F 79% 29.94 in 10.0 mi SE 4.6 mph - N/A   Clear
1:55 AM 81.5 °F 87.4 °F 74.3 °F 79% 29.94 in 10.0 mi SE 5.8 mph - N/A   Clear
2:15 AM 81.3 °F 87.2 °F 74.7 °F 80% 29.94 in 10.0 mi SSE 4.6 mph - N/A   Mostly Cloudy
2:35 AM 82.2 °F 89.1 °F 75.0 °F 79% 29.93 in 10.0 mi SSE 5.8 mph - N/A   Scattered Clouds
2:55 AM 82.6 °F 89.4 °F 74.8 °F 77% 29.93 in 10.0 mi SSE 5.8 mph - N/A   Scattered Clouds
3:15 AM 82.0 °F 88.4 °F 74.5 °F 78% 29.93 in 10.0 mi South 5.8 mph - N/A   Scattered Clouds
3:35 AM 81.9 °F 88.0 °F 74.5 °F 78% 29.93 in 10.0 mi South 4.6 mph - N/A   Clear
3:55 AM 81.7 °F 87.6 °F 74.1 °F 78% 29.93 in 10.0 mi North - - N/A   Clear
4:15 AM 81.3 °F 86.8 °F 73.9 °F 78% 29.93 in 10.0 mi South 3.5 mph - N/A   Scattered Clouds
4:35 AM 81.5 °F 86.9 °F 73.8 °F 77% 29.93 in 10.0 mi Calm Calm - N/A   Scattered Clouds
4:55 AM 81.7 °F 87.3 °F 73.8 °F 77% 29.92 in 10.0 mi South 4.6 mph - N/A   Scattered Clouds
5:15 AM 81.9 °F 87.5 °F 73.6 °F 76% 29.92 in 10.0 mi South 4.6 mph - N/A   Scattered Clouds
5:35 AM 81.9 °F 87.7 °F 73.9 °F 77% 29.92 in 10.0 mi Calm Calm - N/A Thunderstorm Mostly Cloudy
5:55 AM 81.3 °F 86.8 °F 73.9 °F 78% 29.93 in 10.0 mi Calm Calm - N/A Thunderstorm Mostly Cloudy
6:15 AM 80.4 °F 84.8 °F 73.0 °F 78% 29.94 in 3.0 mi South 8.1 mph 20.7 mph 0.18 in Rain , Thunderstorm Heavy Thunderstorms and Rain
6:35 AM 77.4 °F - 73.6 °F 88% 29.94 in 10.0 mi NNW 4.6 mph - 0.22 in Rain , Thunderstorm Light Thunderstorms and Rain
6:55 AM 77.7 °F - 74.7 °F 90% 29.94 in 10.0 mi Calm Calm - 0.22 in Thunderstorm Thunderstorm
7:15 AM 79.2 °F - 75.7 °F 89% 29.94 in 10.0 mi Calm Calm - N/A Thunderstorm Scattered Clouds
7:35 AM 78.6 °F - 75.6 °F 90% 29.95 in 10.0 mi Calm Calm - N/A Thunderstorm Thunderstorm
7:55 AM 78.3 °F - 75.6 °F 91% 29.96 in 10.0 mi East 5.8 mph - N/A Thunderstorm Thunderstorm
8:15 AM 78.1 °F - 75.7 °F 92% 29.97 in 1.2 mi South 6.9 mph - 0.17 in Rain , Thunderstorm Heavy Thunderstorms and Rain
8:35 AM 76.1 °F - 73.9 °F 93% 29.97 in 3.0 mi Calm Calm - 0.31 in Rain , Thunderstorm Light Thunderstorms and Rain
8:55 AM 76.1 °F - 74.1 °F 94% 29.98 in 10.0 mi Calm Calm - 0.32 in Rain , Thunderstorm Light Thunderstorms and Rain
9:15 AM 77.4 °F - 74.8 °F 92% 29.99 in 10.0 mi East 3.5 mph - N/A   Scattered Clouds
9:35 AM 78.8 °F - 76.3 °F 92% 29.99 in 10.0 mi Calm Calm - N/A Thunderstorm Thunderstorm
9:55 AM 80.1 °F 85.7 °F 76.6 °F 89% 29.99 in 10.0 mi Calm Calm - N/A Thunderstorm Mostly Cloudy
10:15 AM 80.6 °F 86.2 °F 75.2 °F 84% 30.00 in 10.0 mi Calm Calm - N/A   Overcast
10:35 AM 81.0 °F 87.1 °F 75.7 °F 84% 30.01 in 10.0 mi SSE 4.6 mph - N/A   Overcast
10:55 AM 80.8 °F 86.5 °F 75.0 °F 83% 29.99 in 10.0 mi ESE 5.8 mph - N/A   Mostly Cloudy
11:15 AM 79.9 °F - 73.2 °F 80% 30.00 in 10.0 mi ESE 6.9 mph - N/A Thunderstorm Thunderstorm
11:35 AM 78.8 °F - 73.4 °F 83% 30.02 in 10.0 mi SSE 10.4 mph - N/A Thunderstorm Thunderstorm
11:55 AM 77.7 °F - 74.1 °F 89% 30.03 in 10.0 mi SE 11.5 mph 17.3 mph N/A Rain , Thunderstorm Light Thunderstorms and Rain
12:15 PM 76.3 °F - 73.8 °F 92% 30.03 in 10.0 mi ESE 10.4 mph - N/A Rain , Thunderstorm Thunderstorms and Rain
12:35 PM 76.1 °F - 74.1 °F 94% 30.02 in 10.0 mi ESE 9.2 mph - N/A   Light Drizzle
12:55 PM 76.3 °F - 74.5 °F 94% 30.02 in 7.0 mi ESE 8.1 mph - 0.02 in Rain Light Rain
1:15 PM 75.7 °F - 74.1 °F 95% 30.02 in 7.0 mi ESE 9.2 mph - 0.02 in Rain Rain
1:35 PM 76.1 °F - 74.7 °F 95% 30.01 in 5.0 mi ENE 5.8 mph - 0.05 in Rain Rain
1:55 PM 76.6 °F - 75.0 °F 95% 30.00 in 10.0 mi ENE 6.9 mph - 0.08 in Rain , Thunderstorm Light Thunderstorms and Rain
2:15 PM 76.8 °F - 74.8 °F 94% 30.00 in 10.0 mi ENE 4.6 mph - N/A   Light Drizzle
2:35 PM 77.5 °F - 74.8 °F 91% 29.99 in 10.0 mi East 4.6 mph - N/A   Light Drizzle
2:55 PM 79.3 °F - 75.2 °F 87% 29.99 in 10.0 mi East 6.9 mph - N/A   Clear
3:15 PM 81.7 °F 87.6 °F 74.1 °F 78% 29.99 in 10.0 mi SE 6.9 mph - N/A   Clear
3:35 PM 83.5 °F 90.0 °F 73.6 °F 72% 29.98 in 10.0 mi SE 6.9 mph - N/A   Clear
3:55 PM 83.5 °F 90.0 °F 73.6 °F 72% 29.97 in 10.0 mi SSE 8.1 mph - N/A   Clear
4:15 PM 86.2 °F 92.2 °F 72.0 °F 62% 29.96 in 10.0 mi SE 11.5 mph - N/A   Clear
4:35 PM 86.7 °F 93.3 °F 72.1 °F 62% 29.96 in 10.0 mi ESE 13.8 mph - N/A   Clear
4:55 PM 85.6 °F 91.8 °F 72.1 °F 64% 29.95 in 10.0 mi ESE 12.7 mph - N/A   Clear
5:15 PM 84.9 °F 91.4 °F 72.7 °F 67% 29.95 in 10.0 mi ESE 10.4 mph - N/A   Clear
5:35 PM 84.6 °F 91.0 °F 72.9 °F 68% 29.95 in 10.0 mi ESE 13.8 mph - N/A   Clear
5:55 PM 83.8 °F 89.8 °F 72.9 °F 69% 29.94 in 10.0 mi ESE 11.5 mph - N/A   Clear
6:15 PM 83.8 °F 90.1 °F 73.2 °F 70% 29.94 in 10.0 mi East 10.4 mph - N/A   Clear
6:35 PM 83.5 °F 90.0 °F 73.6 °F 72% 29.94 in 10.0 mi East 10.4 mph - N/A   Clear
6:55 PM 83.3 °F 89.6 °F 73.6 °F 72% 29.94 in 10.0 mi East 10.4 mph - N/A   Clear
7:15 PM 82.8 °F 88.7 °F 73.4 °F 73% 29.94 in 10.0 mi East 10.4 mph - N/A   Clear
7:35 PM 82.6 °F 88.6 °F 73.6 °F 74% 29.95 in 10.0 mi East 8.1 mph - N/A   Clear
7:55 PM 82.0 °F 87.9 °F 73.8 °F 76% 29.96 in 10.0 mi East 8.1 mph - N/A   Clear
8:15 PM 81.3 °F 86.5 °F 73.6 °F 77% 29.96 in 10.0 mi East 5.8 mph - N/A   Clear
8:35 PM 81.0 °F 86.2 °F 73.8 °F 79% 29.97 in 10.0 mi East 5.8 mph - N/A   Clear
8:55 PM 80.8 °F 85.8 °F 73.8 °F 79% 29.97 in 10.0 mi East 6.9 mph - N/A   Clear
9:15 PM 80.8 °F 85.8 °F 73.6 °F 79% 29.97 in 10.0 mi East 4.6 mph - N/A   Clear
9:35 PM 81.0 °F 86.0 °F 73.6 °F 78% 29.98 in 10.0 mi East 5.8 mph - N/A   Clear
9:55 PM 81.3 °F 86.5 °F 73.6 °F 77% 29.98 in 10.0 mi East 4.6 mph - N/A   Scattered Clouds
10:15 PM 81.3 °F 87.0 °F 74.1 °F 79% 29.98 in 10.0 mi East 6.9 mph - N/A   Scattered Clouds
10:35 PM 81.5 °F 87.4 °F 74.5 °F 79% 29.99 in 10.0 mi East 8.1 mph - N/A   Scattered Clouds
10:55 PM 81.5 °F 87.4 °F 74.5 °F 79% 29.99 in 10.0 mi East 8.1 mph - N/A   Clear
11:15 PM 81.3 °F 87.2 °F 74.5 °F 80% 29.99 in 10.0 mi ESE 8.1 mph - N/A   Clear
11:35 PM 81.5 °F 87.4 °F 74.5 °F 79% 29.99 in 10.0 mi ESE 8.1 mph - N/A   Clear
11:55 PM 81.5 °F 87.4 °F 74.3 °F 79% 29.99 in 10.0 mi ESE 9.2 mph - N/A   Clear